Flag for Germany Weather past 2 weeks in Meppen, Lower Saxony, Germany

Now
64 °F

Mild.


Feels Like: 64 °F
Forecast: 54 / 73 °F
Wind: 2 mph from Northwest

Location: Meppen

Current Time: Jul 31, 2014 at 12:25:08 AM

Latest Report: Jul 30, 2014 at 10:00 PM


Visibility: 6 mi

Pressure: 29.95 "Hg

Humidity: 74%

Dew point: 56 °F

Location of MeppenLocation

Historic Weather in Meppen — Graph

°F

Meppen temperature yesterday

Maximum temperature yesterday: 74 °F (at 1:00 PM)
Minimum temperature yesterday: 61 °F (at 6:00 AM)
Average temperature yesterday: 68 °F

Past Weeks' High & Low Weather Summary

 TemperatureHumidityPressure
High93 °F (Jul 19, 4:00 PM)95% (Jul 16, 7:00 AM)30.20 "Hg (Jul 16, 7:00 AM)
Low53 °F (Jul 16, 6:00 AM)22% (Jul 19, 3:00 PM)29.76 "Hg (Jul 20, 6:00 PM)
Average70 °F71%29.99 "Hg
* Reported Jul 15 10:00 PM — Jul 30 10:00 PM, Meppen, Weather by CustomWeather, © 2014

Note: Actual official high and low records may vary slightly from our data, if they occured in-between our weather recording intervals... More about our weather records

Advertising

Meppen weather history for previous 24 hours

 ConditionsComfort  
Time TempWeatherWind HumidityBarometerVisibility
10:00 PM
Jul 30
64 °FMild.2 mph74%29.95 "Hg6 mi
9:00 PM68 °FMild.3 mph67%29.93 "Hg7 mi
8:00 PM71 °FMild.3 mph59%29.91 "Hg7 mi
7:00 PM71 °FMild.3 mph60%29.90 "Hg7 mi
6:00 PM73 °FMild.2 mph56%29.90 "Hg7 mi
4:00 PM72 °FOvercast.2 mph52%29.90 "Hg31 mi
3:00 PM73 °FPartly sunny.5 mph51%29.90 "Hg31 mi
1:00 PM74 °FScattered clouds.5 mph50%29.88 "Hg31 mi
12:00 PM72 °FPartly sunny.3 mph59%29.88 "Hg31 mi
10:00 AM69 °FScattered clouds.5 mph65%29.87 "Hg28 mi
9:00 AM67 °FPartly sunny.3 mph74%29.87 "Hg25 mi
7:00 AM62 °FPartly sunny.2 mph89%29.85 "Hg11 mi
6:00 AM61 °FScattered clouds.2 mph90%29.84 "Hg9 mi
4:00 AM64 °FMild.2 mph87%29.84 "Hg6 mi
3:00 AM64 °FMild.2 mph85%29.84 "Hg6 mi
2:00 AM65 °FMild.3 mph84%29.84 "Hg6 mi
1:00 AM65 °FMild.3 mph83%29.85 "Hg6 mi
12:00 AM66 °FMild.3 mph79%29.85 "Hg6 mi
Weather by CustomWeather, © 2014

See weather overviewHow to use our weather pages